Terminal Aerodrome Forecast
Issued by NWS

Home | Current Version | Previous Version | Text Only | Print | Product List | Glossary On
Versions: 1 2 3 4 5 6 7 8 9 10 11 12 13 14 15 16 17 18 19 20 21 22 23 24 25 26 27 28
000
FTUS41 KOKX 070058 AAA
TAFTEB
TAF AMD
KTEB 070058Z 0701/0724 15006KT P6SM BKN020
     FM070300 17005KT 4SM BR SCT006 BKN015
     FM070700 17004KT 2SM BR BKN006
     FM071200 18007KT 4SM BR SCT008 BKN015 BKN150
     FM071400 19009KT 6SM HZ VCSH SCT015 BKN050 PROB30 0714/0720 3SM
      TSRA BKN035CB
     FM072000 21011KT P6SM BKN050=

USA.gov is the U.S. government's official web portal to all federal, state and local government web resources and services.